When you browse on this site, cookies collect data to enhance your experience and personalize the content and advertising you see.
Visit our Privacy Policy to learn more. By continuing to use the site, you agree to this use of cookies and data.
  • In United Kingdom
  • List of Countries
  • For 7 days
  • Water Temperature
  • Weather Map
  • Weather Widgets
  • user-avatar
    Login

    Hourly Weather Pilis

    Today, 15 September, Sunday

    Time Temperature Precipitation Wind Pressure Humidity
    00:00 +14°C° 0 mm 3 mps 759 mmHg 59%
    01:00 +14°C° 0 mm 2 mps 759 mmHg 62%
    02:00 +14°C° 0 mm 2 mps 759 mmHg 63%
    03:00 +13°C° 0 mm 2 mps 758 mmHg 65%
    04:00 +13°C° 0 mm 2 mps 758 mmHg 66%
    05:00 +14°C° 0 mm 1 mps 758 mmHg 64%
    06:00 +14°C° 0 mm 1 mps 758 mmHg 61%
    07:00 +15°C° 0 mm 1 mps 758 mmHg 59%
    08:00 +18°C° 0 mm 1 mps 758 mmHg 53%
    09:00 +19°C° 0 mm 1 mps 758 mmHg 47%
    10:00 +21°C° 0 mm 1 mps 758 mmHg 41%
    11:00 +21°C° 0 mm 2 mps 757 mmHg 39%
    12:00 +23°C° 0 mm 2 mps 757 mmHg 37%
    13:00 +25°C° 0 mm 2 mps 756 mmHg 35%
    14:00 +25°C° 0 mm 2 mps 756 mmHg 37%
    15:00 +25°C° 0 mm 2 mps 755 mmHg 38%
    16:00 +25°C° 0 mm 2 mps 754 mmHg 40%
    17:00 +24°C° 0 mm 2 mps 754 mmHg 44%
    18:00 +21°C° 0 mm 2 mps 754 mmHg 49%
    19:00 +20°C° 0 mm 2 mps 754 mmHg 54%
    20:00 +19°C° 0 mm 2 mps 754 mmHg 56%
    21:00 +19°C° 0 mm 2 mps 753 mmHg 58%
    22:00 +18°C° 0 mm 2 mps 753 mmHg 60%
    23:00 +18°C° 0 mm 2 mps 753 mmHg 61%

    Tomorrow, 16 September, Monday

    Time Temperature Precipitation Wind Pressure Humidity
    00:00 +17°C° 0 mm 2 mps 753 mmHg 62%
    01:00 +17°C° 0 mm 2 mps 753 mmHg 64%
    02:00 +17°C° 0 mm 2 mps 753 mmHg 65%
    03:00 +17°C° 0 mm 2 mps 752 mmHg 67%
    04:00 +16°C° 0 mm 2 mps 752 mmHg 69%
    05:00 +17°C° 0 mm 2 mps 752 mmHg 68%
    06:00 +18°C° 0 mm 2 mps 752 mmHg 67%
    07:00 +18°C° 0 mm 2 mps 751 mmHg 66%
    08:00 +20°C° 0 mm 2 mps 751 mmHg 61%
    09:00 +22°C° 0 mm 3 mps 751 mmHg 56%
    10:00 +26°C° 0 mm 3 mps 752 mmHg 51%
    11:00 +27°C° 0 mm 3 mps 751 mmHg 47%
    12:00 +28°C° 0 mm 3 mps 750 mmHg 43%
    13:00 +29°C° 0 mm 3 mps 750 mmHg 38%
    14:00 +29°C° 0 mm 3 mps 749 mmHg 39%
    15:00 +29°C° 0 mm 3 mps 749 mmHg 40%
    16:00 +28°C° 0 mm 3 mps 748 mmHg 41%
    17:00 +27°C° 0 mm 3 mps 748 mmHg 45%
    18:00 +25°C° 0 mm 2 mps 748 mmHg 50%
    19:00 +24°C° 0 mm 1 mps 748 mmHg 55%
    20:00 +23°C° 0.1 mm 1 mps 748 mmHg 58%
    21:00 +23°C° 0.1 mm 1 mps 748 mmHg 61%
    22:00 +23°C° 0.1 mm 1 mps 748 mmHg 63%
    23:00 +21°C° 0.1 mm 2 mps 748 mmHg 67%

    Day after tomorrow, 17 September, Tuesday

    Time Temperature Precipitation Wind Pressure Humidity
    00:00 +21°C° 0.1 mm 2 mps 748 mmHg 70%
    01:00 +20°C° 0.1 mm 2 mps 747 mmHg 74%
    02:00 +20°C° 0 mm 2 mps 747 mmHg 74%
    03:00 +20°C° 0 mm 3 mps 747 mmHg 74%
    04:00 +19°C° 0 mm 3 mps 747 mmHg 74%
    05:00 +20°C° 0 mm 3 mps 747 mmHg 70%
    06:00 +20°C° 0 mm 3 mps 747 mmHg 65%
    07:00 +20°C° 0 mm 4 mps 747 mmHg 61%
    08:00 +21°C° 0 mm 4 mps 748 mmHg 57%
    09:00 +22°C° 0 mm 5 mps 748 mmHg 54%
    10:00 +23°C° 0 mm 6 mps 748 mmHg 50%
    11:00 +24°C° 0 mm 6 mps 748 mmHg 48%
    12:00 +24°C° 0 mm 6 mps 748 mmHg 45%
    13:00 +26°C° 0 mm 6 mps 748 mmHg 43%
    14:00 +24°C° 0 mm 6 mps 747 mmHg 43%
    15:00 +24°C° 0 mm 6 mps 747 mmHg 43%
    16:00 +23°C° 0 mm 6 mps 747 mmHg 44%
    17:00 +22°C° 0 mm 5 mps 747 mmHg 47%
    18:00 +20°C° 0 mm 4 mps 747 mmHg 51%
    19:00 +18°C° 0 mm 3 mps 747 mmHg 55%
    20:00 +18°C° 0 mm 4 mps 748 mmHg 55%
    21:00 +17°C° 0 mm 4 mps 748 mmHg 54%
    22:00 +15°C° 0 mm 4 mps 748 mmHg 54%
    23:00 +15°C° 0 mm 4 mps 749 mmHg 54%

    18 September, Wednesday

    Time Temperature Precipitation Wind Pressure Humidity
    00:00 +14°C° 0 mm 4 mps 749 mmHg 53%
    01:00 +13°C° 0 mm 4 mps 749 mmHg 53%
    02:00 +13°C° 0 mm 4 mps 750 mmHg 54%
    03:00 +12°C° 0 mm 3 mps 750 mmHg 54%
    04:00 +11°C° 0 mm 3 mps 751 mmHg 55%
    05:00 +11°C° 0 mm 4 mps 751 mmHg 53%
    06:00 +12°C° 0 mm 4 mps 751 mmHg 52%
    07:00 +12°C° 0 mm 4 mps 752 mmHg 50%
    08:00 +13°C° 0 mm 4 mps 752 mmHg 45%
    09:00 +15°C° 0 mm 5 mps 752 mmHg 39%
    10:00 +16°C° 0 mm 5 mps 753 mmHg 34%
    11:00 +17°C° 0 mm 5 mps 753 mmHg 32%
    12:00 +17°C° 0 mm 5 mps 752 mmHg 29%
    13:00 +19°C° 0 mm 5 mps 752 mmHg 27%
    14:00 +19°C° 0 mm 4 mps 752 mmHg 28%
    15:00 +19°C° 0 mm 4 mps 752 mmHg 28%
    16:00 +18°C° 0 mm 4 mps 752 mmHg 29%
    17:00 +17°C° 0 mm 4 mps 752 mmHg 32%
    18:00 +14°C° 0 mm 3 mps 752 mmHg 36%
    19:00 +13°C° 0 mm 3 mps 752 mmHg 39%
    20:00 +13°C° 0 mm 2 mps 752 mmHg 40%
    21:00 +13°C° 0 mm 2 mps 753 mmHg 42%
    22:00 +12°C° 0 mm 2 mps 753 mmHg 44%
    23:00 +12°C° 0 mm 2 mps 753 mmHg 46%

    19 September, Thursday

    Time Temperature Precipitation Wind Pressure Humidity
    00:00 +10°C° 0 mm 2 mps 753 mmHg 48%
    01:00 +10°C° 0 mm 2 mps 753 mmHg 50%
    02:00 +9°C° 0 mm 2 mps 753 mmHg 52%
    03:00 +9°C° 0 mm 2 mps 752 mmHg 55%
    04:00 +8°C° 0 mm 2 mps 752 mmHg 57%
    05:00 +9°C° 0 mm 2 mps 752 mmHg 56%
    06:00 +9°C° 0 mm 2 mps 752 mmHg 55%
    07:00 +10°C° 0 mm 3 mps 753 mmHg 55%
    08:00 +12°C° 0 mm 3 mps 753 mmHg 49%
    09:00 +13°C° 0 mm 3 mps 753 mmHg 44%
    10:00 +15°C° 0 mm 4 mps 753 mmHg 38%
    11:00 +17°C° 0 mm 4 mps 753 mmHg 35%
    12:00 +18°C° 0 mm 4 mps 753 mmHg 32%
    13:00 +18°C° 0 mm 3 mps 752 mmHg 29%
    14:00 +18°C° 0 mm 4 mps 752 mmHg 30%
    15:00 +18°C° 0 mm 4 mps 752 mmHg 31%
    16:00 +18°C° 0 mm 4 mps 752 mmHg 32%
    17:00 +17°C° 0 mm 4 mps 753 mmHg 36%
    18:00 +14°C° 0 mm 4 mps 753 mmHg 40%
    19:00 +13°C° 0 mm 4 mps 753 mmHg 43%
    20:00 +12°C° 0 mm 4 mps 754 mmHg 45%
    21:00 +11°C° 0 mm 3 mps 754 mmHg 47%
    22:00 +11°C° 0 mm 3 mps 754 mmHg 49%
    23:00 +10°C° 0 mm 3 mps 754 mmHg 55%

    20 September, Friday

    Time Temperature Precipitation Wind Pressure Humidity
    00:00 +9°C° 0 mm 3 mps 754 mmHg 61%
    01:00 +8°C° 0 mm 3 mps 754 mmHg 66%
    02:00 +8°C° 0 mm 3 mps 754 mmHg 68%
    03:00 +8°C° 0 mm 3 mps 754 mmHg 71%
    04:00 +8°C° 0 mm 3 mps 755 mmHg 73%
    05:00 +8°C° 0 mm 3 mps 755 mmHg 69%
    06:00 +9°C° 0 mm 3 mps 755 mmHg 66%
    07:00 +8°C° 0 mm 4 mps 756 mmHg 63%
    08:00 +11°C° 0 mm 4 mps 756 mmHg 56%
    09:00 +13°C° 0 mm 4 mps 757 mmHg 49%
    10:00 +14°C° 0 mm 4 mps 757 mmHg 42%
    11:00 +15°C° 0 mm 4 mps 757 mmHg 38%
    12:00 +15°C° 0 mm 4 mps 757 mmHg 35%
    13:00 +17°C° 0 mm 3 mps 757 mmHg 31%
    14:00 +17°C° 0 mm 3 mps 757 mmHg 31%
    15:00 +17°C° 0 mm 3 mps 757 mmHg 30%
    16:00 +17°C° 0 mm 3 mps 757 mmHg 30%
    17:00 +14°C° 0 mm 3 mps 757 mmHg 34%
    18:00 +12°C° 0 mm 3 mps 757 mmHg 38%
    19:00 +12°C° 0 mm 2 mps 758 mmHg 41%
    20:00 +10°C° 0 mm 2 mps 758 mmHg 45%
    21:00 +9°C° 0 mm 2 mps 758 mmHg 49%
    22:00 +8°C° 0 mm 2 mps 759 mmHg 52%
    23:00 +8°C° 0 mm 2 mps 759 mmHg 55%
    Show more